User: anonymous   Login
Location: Crocus Hill
(18.2167°N, 63.0667°W)
Time: 21:50:26
(UTC+00:00)
Language:

SJ-12 - Orbit

View from above orbital plane
View from above orbital plane
View from above satellite
View from above satellite

Ground track
Ground track

The orbit data is extracted from the following two-line orbital elements,

1 36596U 10027A   20093.21955451 -.00000289 +00000-0 -20316-4 0  9992
2 36596 097.6514 083.8695 0010974 207.3905 152.6739 14.96682755534388
Epoch (UTC): 02 April 2020 05:16:09
Eccentricity: 0.0010974
inclination: 97.6514°
perigee height: 569 km
apogee height: 585 km
right ascension of ascending node: 83.8695°
argument of perigee: 207.3905°
revolutions per day: 14.96682755
mean anomaly at epoch: 152.6739°
orbit number at epoch: 53438

The dashed part of the orbit path shows where the satellite is in the earth's shadow,  

DLR